Terminal Aerodrome Forecast
Issued by NWS

Home | Current Version | Previous Version | Text Only | Print | Product List | Glossary On
Versions: 1 2 3 4 5 6 7 8 9 10 11 12 13 14 15 16 17 18 19 20
000
FTUS43 KBIS 242300 RRA
TAFDIK
TAF
KDIK 242341Z 2500/2524 30009KT P6SM SCT009 OVC035
     FM250200 32006KT P6SM BKN045 OVC070
     FM250800 35007KT 4SM -SHSN BR BKN007 OVC018
      TEMPO 2509/2513 2SM -SN BR OVC009
     FM251600 34011KT 5SM -SHSN SCT008 OVC011
     FM251900 33013G18KT P6SM -SHSN OVC015=

USA.gov is the U.S. government's official web portal to all federal, state and local government web resources and services.